FW4805 Weather Reports


time (UTC)temp
C
wind
direction
speed
KPH
gust
KPH
rain 1hr
cm
rain 24hr
cm
rain mn
cm
humidity
%
barometer
mb
20260506234000 16 270 1.6 8.0 0.00 0.00 0.00 44 1014.8
20260506233001 17 267 1.6 6.4 0.00 0.00 0.00 40 1014.9
20260506232001 18 264 3.2 11.3 0.00 0.00 0.00 39 1015.1
20260506231001 18 274 3.2 11.3 0.00 0.00 0.00 39 1015.1
20260506230001 18 278 3.2 8.0 0.00 0.00 0.00 40 1015.1
20260506224001 18 278 4.8 11.3 0.00 0.00 0.00 48 1015.4
20260506223001 18 272 8.0 17.7 0.00 0.00 0.00 49 1015.6
20260506222001 18 271 9.7 17.7 0.00 0.00 0.00 48 1015.6
20260506221001 18 270 6.4 17.7 0.00 0.00 0.00 49 1015.7
20260506215001 18 275 4.8 11.3 0.00 0.00 0.00 50 1015.7
20260506214000 18 273 8.0 16.1 0.00 0.00 0.00 51 1015.6
20260506213000 18 275 8.0 16.1 0.00 0.00 0.00 52 1015.7
20260506212000 18 274 9.7 12.9 0.00 0.00 0.00 51 1015.6
20260506211000 18 272 12.9 16.1 0.00 0.00 0.00 51 1015.6
20260506205001 18 271 11.3 16.1 0.00 0.00 0.00 49 1015.5
20260506204001 18 270 11.3 17.7 0.00 0.00 0.00 49 1015.6
20260506203001 18 275 9.7 16.1 0.00 0.00 0.00 48 1015.5
20260506202001 18 274 9.7 12.9 0.00 0.00 0.00 48 1015.6
20260506201001 18 274 9.7 12.9 0.00 0.00 0.00 48 1015.5
20260506200001 18 274 11.3 12.9 0.00 0.00 0.00 49 1015.5
20260506195001 18 273 9.7 16.1 0.00 0.00 0.00 49 1015.3
20260506194001 18 270 8.0 17.7 0.00 0.00 0.00 50 1015.4
20260506193001 18 270 9.7 12.9 0.00 0.00 0.00 50 1015.3
20260506191001 18 272 6.4 11.3 0.00 0.00 0.00 51 1015.2
20260506190001 18 272 8.0 12.9 0.00 0.00 0.00 51 1015.2
20260506185001 18 273 6.4 11.3 0.00 0.00 0.00 51 1015.0
20260506184001 19 276 8.0 12.9 0.00 0.00 0.00 50 1015.0
20260506183001 18 273 8.0 12.9 0.00 0.00 0.00 51 1014.9
20260506181001 18 276 6.4 11.3 0.00 0.00 0.00 51 1014.8
20260506180001 19 275 8.0 17.7 0.00 0.00 0.00 51 1014.6
20260506175001 19 270 9.7 16.1 0.00 0.00 0.00 51 1014.6
20260506174001 19 267 9.7 25.7 0.00 0.00 0.00 51 1014.4
20260506172001 19 266 9.7 16.1 0.00 0.00 0.00 50 1014.5
20260506170001 20 270 4.8 17.7 0.00 0.00 0.00 51 1014.3
20260506165001 20 272 11.3 20.9 0.00 0.00 0.00 50 1014.3
20260506163001 20 272 9.7 22.5 0.00 0.00 0.00 52 1014.4
20260506162001 20 272 12.9 20.9 0.00 0.00 0.00 51 1014.4
20260506161001 20 279 11.3 19.3 0.00 0.00 0.00 49 1014.4
20260506155001 21 267 16.1 29.0 0.00 0.00 0.00 49 1014.5
20260506154001 21 265 14.5 22.5 0.00 0.00 0.00 49 1014.4
20260506153000 21 266 17.7 29.0 0.00 0.00 0.00 48 1014.4
20260506152001 21 259 16.1 25.7 0.00 0.00 0.00 47 1014.5
20260506151001 22 253 11.3 17.7 0.00 0.00 0.00 47 1014.3
20260506150001 22 252 14.5 22.5 0.00 0.00 0.00 47 1014.4
20260506144001 22 270 17.7 25.7 0.00 0.00 0.00 48 1014.6
20260506143001 22 270 17.7 22.5 0.00 0.00 0.00 51 1014.7
20260506142001 22 264 17.7 25.7 0.00 0.00 0.00 51 1014.6
20260506141001 22 267 19.3 27.4 0.00 0.00 0.00 51 1014.8
20260506140001 22 268 17.7 22.5 0.00 0.00 0.00 50 1014.7
20260506135001 23 261 14.5 22.5 0.00 0.00 0.00 51 1014.7
20260506134001 23 267 11.3 22.5 0.00 0.00 0.00 51 1014.8
20260506133001 23 270 6.4 17.7 0.00 0.00 0.00 51 1014.7
20260506131001 22 94 6.4 12.9 0.00 0.00 0.00 54 1014.9
20260506130001 21 87 11.3 16.1 0.00 0.00 0.00 53 1015.0
20260506125001 22 78 11.3 16.1 0.00 0.00 0.00 51 1015.0
20260506124001 22 92 11.3 16.1 0.00 0.00 0.00 45 1015.1
20260506123001 22 98 11.3 17.7 0.00 0.00 0.00 42 1015.0
20260506122001 22 99 14.5 19.3 0.00 0.00 0.00 48 1015.1
20260506121001 23 87 12.9 19.3 0.00 0.00 0.00 43 1015.2
20260506120001 23 116 6.4 12.9 0.00 0.00 0.00 48 1015.2
20260506115001 23 86 11.3 16.1 0.00 0.00 0.00 47 1015.2
20260506113001 23 90 4.8 12.9 0.00 0.00 0.00 41 1015.4
20260506112001 23 100 6.4 17.7 0.00 0.00 0.00 40 1015.3
20260506111001 23 176 9.7 16.1 0.00 0.00 0.00 41 1015.3
20260506110001 24 254 6.4 16.1 0.00 0.00 0.00 45 1015.3
20260506105001 24 257 8.0 17.7 0.00 0.00 0.00 44 1015.2
20260506104001 23 270 12.9 20.9 0.00 0.00 0.00 45 1015.2
20260506103001 22 268 19.3 25.7 0.00 0.00 0.00 47 1015.2
20260506102001 22 261 17.7 22.5 0.00 0.00 0.00 46 1015.2
20260506101001 22 265 19.3 27.4 0.00 0.00 0.00 44 1015.2
20260506100001 23 263 16.1 27.4 0.00 0.00 0.00 44 1015.1
20260506095002 22 265 17.7 25.7 0.00 0.00 0.00 44 1015.2
20260506094002 22 266 17.7 25.7 0.00 0.00 0.00 43 1015.3
20260506093001 22 261 17.7 27.4 0.00 0.00 0.00 42 1015.2
20260506091001 23 262 16.1 22.5 0.00 0.00 0.00 41 1015.1
20260506090001 22 261 16.1 25.7 0.00 0.00 0.00 39 1015.2
20260506085001 23 260 12.9 22.5 0.00 0.00 0.00 39 1015.1
20260506084001 22 260 16.1 20.9 0.00 0.00 0.00 40 1015.0
20260506083001 22 254 12.9 20.9 0.00 0.00 0.00 39 1014.9
20260506082001 23 257 11.3 17.7 0.00 0.00 0.00 38 1014.9
20260506081001 22 258 12.9 20.9 0.00 0.00 0.00 39 1014.9
20260506073001 22 247 8.0 17.7 0.00 0.00 0.00 42 1014.6
20260506072002 22 258 12.9 20.9 0.00 0.00 0.00 43 1014.6
20260506071001 21 253 11.3 19.3 0.00 0.00 0.00 41 1014.6
20260506062001 21 254 11.3 20.9 0.00 0.00 0.00 43 1014.6
20260506061001 21 228 8.0 16.1 0.00 0.00 0.00 44 1014.6
20260506051002 17 269 0.0 3.2 0.00 0.00 0.00 59 1014.5
20260506045002 15 0 0.0 0.0 0.00 0.00 0.00 66 1014.6
20260506044002 13 0 0.0 0.0 0.00 0.00 0.00 71 1014.4
20260506043002 13 0 0.0 0.0 0.00 0.00 0.00 72 1014.5
20260506042002 11 0 0.0 0.0 0.00 0.00 0.00 74 1014.4
20260506041002 11 0 0.0 0.0 0.00 0.00 0.00 75 1014.3
20260506034001 10 0 0.0 0.0 0.00 0.00 0.00 77 1014.1
20260506033001 9 0 0.0 0.0 0.00 0.00 0.00 77 1014.0
20260506032001 10 0 0.0 0.0 0.00 0.00 0.00 76 1014.1
20260506031001 10 0 0.0 0.0 0.00 0.00 0.00 76 1013.9
20260506030001 10 0 0.0 0.0 0.00 0.00 0.00 76 1013.9
20260506024001 10 0 0.0 0.0 0.00 0.00 0.00 75 1014.1
20260506023002 10 0 0.0 0.0 0.00 0.00 0.00 76 1014.0
20260506022002 10 0 0.0 0.0 0.00 0.00 0.00 75 1014.0
20260506021002 10 0 0.0 0.0 0.00 0.00 0.00 75 1014.0
20260506020002 10 0 0.0 0.0 0.00 0.00 0.00 75 1014.0
20260506015002 10 0 0.0 0.0 0.00 0.00 0.00 75 1014.1
20260506014002 10 0 0.0 0.0 0.00 0.00 0.00 74 1014.1
20260506013002 10 0 0.0 0.0 0.00 0.00 0.00 73 1014.2
20260506011002 10 276 0.0 1.6 0.00 0.00 0.00 73 1014.0
20260506005002 11 276 0.0 3.2 0.00 0.00 0.00 71 1014.2
20260506004001 11 0 0.0 0.0 0.00 0.00 0.00 71 1014.1
20260506003001 11 0 0.0 0.0 0.00 0.00 0.00 71 1014.2
20260506002001 11 0 0.0 0.0 0.00 0.00 0.00 71 1014.2
20260506000002 11 276 0.0 1.6 0.00 0.00 0.00 72 1014.2